Weather History for Bentonville, AR

Change the Weather History Date:

Tuesday, November 1, 2011

  Actual Average Record
Temperature  
Mean Temperature 58 °F -  
Max Temperature 71 °F 65 °F 81 °F (1948)
Min Temperature 46 °F 44 °F 19 °F (1993)
Degree Days  
Heating Degree Days 6    
Growing Degree Days 8 (Base 50)    
Moisture  
Dew Point 40 °F    
Average Humidity 50    
Maximum Humidity 76    
Minimum Humidity 33    
Precipitation  
Precipitation 0.00 in - - ()
Sea Level Pressure  
Sea Level Pressure 30.07 in    
Wind  
Wind Speed 8 mph (South)    
Max Wind Speed 17 mph    
Max Gust Speed 26 mph    
Visibility 10 miles    
Events      
Averages and records for this station are not official NWS values.
T = Trace of Precipitation, MM = Missing Value Source: NWS Daily Summary

Daily Weather History Graph

Daily Weather History Graph

Search for Another Location

Airport:

Trip Planner

Search our weather history database for the weather conditions in past years. The results will help you decide how hot, cold, wet, or windy it might be!

Date:

Astronomy

Nov. 01, 2011 Rise Set
Actual Time 7:39 AM CDT 6:20 PM CDT
Civil Twilight 7:13 AM CDT 6:47 PM CDT
Nautical Twilight 6:42 AM CDT 7:17 PM CDT
Astronomical Twilight 6:12 AM CDT 7:47 PM CDT
Moon 1:24 PM CDT (11/1) No Moon Set
Length of Visible Light 11h 34m
Length of Day
10h 41m
Waxing Crescent, 40% of the Moon is Illuminated
Nov 1
Waxing Crescent
Nov 2
First Quarter
Nov 10
Full
Nov 18
Last Quarter
Nov 25
New

Hourly Weather History & Observations

Time (CDT) Temp. Windchill Dew Point Humidity Pressure Visibility Wind Dir Wind Speed Gust Speed Precip Events Conditions
12:15 AM 51.8 °F - 39.2 °F 62% 30.08 in 10.0 mi South 6.9 mph - N/A   Clear
12:35 AM 53.6 °F - 39.2 °F 58% 30.08 in 10.0 mi South 5.8 mph - N/A   Clear
12:55 AM 53.6 °F - 39.2 °F 58% 30.08 in 10.0 mi South 5.8 mph - N/A   Clear
1:15 AM 53.6 °F - 39.2 °F 58% 30.09 in 10.0 mi South 5.8 mph - N/A   Clear
1:35 AM 53.6 °F - 39.2 °F 58% 30.09 in 10.0 mi South 4.6 mph - N/A   Clear
1:55 AM 53.6 °F - 39.2 °F 58% 30.09 in 10.0 mi South 4.6 mph - N/A   Clear
2:15 AM 53.6 °F - 39.2 °F 58% 30.09 in 10.0 mi South 5.8 mph - N/A   Clear
2:35 AM 53.6 °F - 39.2 °F 58% 30.09 in 10.0 mi South 6.9 mph - N/A   Clear
2:55 AM 53.6 °F - 39.2 °F 58% 30.09 in 10.0 mi South 6.9 mph - N/A   Clear
3:15 AM 53.6 °F - 39.2 °F 58% 30.10 in 10.0 mi South 5.8 mph - N/A   Clear
3:35 AM 51.8 °F - 39.2 °F 62% 30.10 in 10.0 mi Calm Calm - N/A   Clear
3:55 AM 50.0 °F - 39.2 °F 66% 30.09 in 10.0 mi SE 3.5 mph - N/A   Clear
4:15 AM 50.0 °F - 37.4 °F 62% 30.10 in 10.0 mi Calm Calm - N/A   Clear
4:35 AM 48.2 °F - 39.2 °F 71% 30.10 in 10.0 mi Calm Calm - N/A   Clear
4:55 AM 46.4 °F 44.3 °F 37.4 °F 71% 30.09 in 10.0 mi SE 4.6 mph - N/A   Clear
5:15 AM 48.2 °F - 39.2 °F 71% 30.09 in 10.0 mi SE 5.8 mph - N/A   Clear
5:35 AM 48.2 °F - 39.2 °F 71% 30.09 in 10.0 mi ESE 4.6 mph - N/A   Clear
5:55 AM 48.2 °F - 39.2 °F 71% 30.09 in 10.0 mi SE 4.6 mph - N/A   Clear
6:15 AM 48.2 °F - 37.4 °F 66% 30.09 in 10.0 mi SE 5.8 mph - N/A   Clear
6:35 AM 46.4 °F 44.3 °F 37.4 °F 71% 30.10 in 10.0 mi SE 4.6 mph - N/A   Clear
6:55 AM 46.4 °F 42.9 °F 37.4 °F 71% 30.09 in 10.0 mi SE 6.9 mph - N/A   Clear
7:15 AM 46.4 °F 42.9 °F 39.2 °F 76% 30.10 in 10.0 mi SSE 6.9 mph - N/A   Clear
7:35 AM 46.4 °F 42.9 °F 39.2 °F 76% 30.10 in 10.0 mi SSE 6.9 mph - N/A   Clear
8:15 AM 48.2 °F - 39.2 °F 71% 30.11 in 10.0 mi SSE 6.9 mph - N/A   Clear
8:35 AM 51.8 °F - 41.0 °F 67% 30.11 in 10.0 mi SSE 6.9 mph - N/A   Clear
9:15 AM 57.2 °F - 41.0 °F 55% 30.12 in 10.0 mi South 9.2 mph - N/A   Clear
9:35 AM 60.8 °F - 41.0 °F 48% 30.12 in 10.0 mi South 10.4 mph 16.1 mph N/A   Clear
10:15 AM 62.6 °F - 41.0 °F 45% 30.13 in 10.0 mi South 12.7 mph 18.4 mph N/A   Clear
10:35 AM 64.4 °F - 42.8 °F 45% 30.13 in 10.0 mi South 11.5 mph 18.4 mph N/A   Clear
10:55 AM 64.4 °F - 42.8 °F 45% 30.12 in 10.0 mi South 13.8 mph 21.9 mph N/A   Clear
11:15 AM 66.2 °F - 42.8 °F 43% 30.12 in 10.0 mi South 16.1 mph 24.2 mph N/A   Clear
11:35 AM 66.2 °F - 42.8 °F 43% 30.11 in 10.0 mi South 12.7 mph 19.6 mph N/A   Clear
11:55 AM 68.0 °F - 42.8 °F 40% 30.11 in 10.0 mi SSW 10.4 mph 20.7 mph N/A   Clear
12:15 PM 69.8 °F - 44.6 °F 40% 30.10 in 10.0 mi SSW 12.7 mph 18.4 mph N/A   Clear
12:35 PM 69.8 °F - 44.6 °F 40% 30.09 in 10.0 mi SSW 13.8 mph 19.6 mph N/A   Clear
12:55 PM 69.8 °F - 44.6 °F 40% 30.09 in 10.0 mi SSW 16.1 mph 24.2 mph N/A   Clear
1:15 PM 69.8 °F - 44.6 °F 40% 30.07 in 10.0 mi South 16.1 mph 23.0 mph N/A   Clear
1:35 PM 69.8 °F - 44.6 °F 40% 30.07 in 10.0 mi South 16.1 mph 20.7 mph N/A   Clear
2:15 PM 71.6 °F - 44.6 °F 38% 30.05 in 10.0 mi South 15.0 mph 21.9 mph N/A   Clear
2:35 PM 71.6 °F - 44.6 °F 38% 30.04 in 10.0 mi South 12.7 mph 26.5 mph N/A   Clear
2:55 PM 71.6 °F - 44.6 °F 38% 30.04 in 10.0 mi SSW 13.8 mph 21.9 mph N/A   Clear
3:15 PM 71.6 °F - 44.6 °F 38% 30.03 in 10.0 mi South 17.3 mph 24.2 mph N/A   Clear
3:35 PM 71.6 °F - 42.8 °F 35% 30.02 in 10.0 mi South 12.7 mph 24.2 mph N/A   Clear
3:55 PM 71.6 °F - 42.8 °F 35% 30.02 in 10.0 mi South 8.1 mph 20.7 mph N/A   Clear
4:15 PM 71.6 °F - 44.6 °F 38% 30.02 in 10.0 mi South 12.7 mph 20.7 mph N/A   Clear
4:35 PM 71.6 °F - 42.8 °F 35% 30.01 in 10.0 mi South 12.7 mph 21.9 mph N/A   Clear
4:55 PM 71.6 °F - 42.8 °F 35% 30.01 in 10.0 mi South 13.8 mph 21.9 mph N/A   Clear
5:15 PM 69.8 °F - 42.8 °F 38% 30.01 in 10.0 mi South 11.5 mph 19.6 mph N/A   Clear
5:35 PM 69.8 °F - 39.2 °F 33% 30.01 in 10.0 mi South 13.8 mph 24.2 mph N/A   Clear
5:55 PM 68.0 °F - 39.2 °F 35% 30.00 in 10.0 mi South 10.4 mph 18.4 mph N/A   Clear
6:15 PM 66.2 °F - 39.2 °F 37% 30.00 in 10.0 mi South 10.4 mph - N/A   Clear
6:35 PM 66.2 °F - 37.4 °F 35% 30.00 in 10.0 mi South 11.5 mph 17.3 mph N/A   Clear
6:55 PM 64.4 °F - 37.4 °F 37% 30.00 in 10.0 mi South 8.1 mph - N/A   Clear
7:15 PM 62.6 °F - 39.2 °F 42% 30.00 in 10.0 mi South 10.4 mph - N/A   Clear
7:35 PM 62.6 °F - 37.4 °F 39% 30.00 in 10.0 mi South 9.2 mph - N/A   Clear
7:55 PM 62.6 °F - 37.4 °F 39% 30.00 in 10.0 mi South 9.2 mph - N/A   Clear
8:15 PM 60.8 °F - 37.4 °F 42% 30.00 in 10.0 mi SSE 9.2 mph - N/A   Clear
8:35 PM 60.8 °F - 37.4 °F 42% 30.00 in 10.0 mi SSE 9.2 mph - N/A   Clear
8:55 PM 60.8 °F - 39.2 °F 45% 30.00 in 10.0 mi South 8.1 mph - N/A   Clear
9:35 PM 59.0 °F - 37.4 °F 45% 30.00 in 10.0 mi South 8.1 mph - N/A   Clear
10:15 PM 60.8 °F - 39.2 °F 45% 30.01 in 10.0 mi South 6.9 mph - N/A   Clear
10:35 PM 60.8 °F - 37.4 °F 42% 30.01 in 10.0 mi South 8.1 mph 17.3 mph N/A   Clear
11:15 PM 60.8 °F - 37.4 °F 42% 30.01 in 10.0 mi South 8.1 mph - N/A   Clear
11:35 PM 60.8 °F - 37.4 °F 42% 30.01 in 10.0 mi South 8.1 mph - N/A   Clear
11:55 PM 60.8 °F - 37.4 °F 42% 30.01 in 10.0 mi South 9.2 mph - N/A   Clear